Location: East Irvine
(33.6759°N, 117.7598°W)
Time: 01:51:01
(UTC+00:00)

H-II Stage 2 - Pass Details

Date: 15 November 2025
Orbit: 321 x 26725 km, 28.4° (Epoch: 07 December)

Event Time Altitude Azimuth Distance (km) Brightness Sun altitude
Rises 02:22:56 0° 263° (W) 10,573 10.0 -19.7°
Reaches altitude 10° 02:34:28 10° 262° (W) 6,175 8.3 -22.1°
Maximum altitude 02:46:31 52° 189° (S) 1,063 3.2 -24.6°
Enters shadow 02:47:19 45° 154° (SSE) 1,012 2.9 -24.8°
